Location: Unspecified
(0.0000°N, 0.0000°E)
Time: 07:09:58
(UTC+00:00)

Vanguard 2 - Pass Details

Date: 23 September 2019
Orbit: 554 x 2937 km, 32.9° (Epoch: 14 October)

Event Time Altitude Azimuth Distance (km) Brightness Sun altitude
Rises 01:23:16 0° 264° (W) 6,782 - -67.3°
Reaches altitude 10° 01:28:54 10° 274° (W) 5,746 - -65.9°
Maximum altitude 01:42:44 29° 326° (NNW) 3,921 - -62.5°
Exits shadow 01:53:10 11° 20° (NNE) 4,410 11.4 -59.9°
Drops below altitude 10° 01:53:42 10° 22° (NNE) 4,486 11.5 -59.7°
Sets 01:57:29 0° 33° (NNE) 5,134 12.0 -58.8°
